Flag for U.S.A. Weather past 2 weeks in Fort Collins, Colorado, U.S.A.

Now
64 °F

Clear.


Feels Like: 64 °F
Forecast: 58 / 89 °F
Wind: No wind

Location: Fort Collins-Loveland Municipal Airport

Current Time: Sep 2, 2015 at 1:08:49 AM

Latest Report: Sep 2, 2015 at 12:35 AM


Visibility: 10 mi

Pressure: 30.07 "Hg (25.15 "Hg at 1522m altitude)

Humidity: 52%

Dew point: 46 °F

Location of Fort CollinsLocation

Historic Weather in Fort Collins — Graph

°F

Fort Collins temperature yesterday

Maximum temperature yesterday: 91 °F (at 3:15 PM)
Minimum temperature yesterday: 54 °F (at 5:55 AM)
Average temperature yesterday: 70 °F

Past Weeks' High & Low Weather Summary

 TemperatureHumidityPressure
High97 °F (Aug 30, 2:35 PM)88% (Aug 17, 11:35 PM)30.36 "Hg (Aug 17, 11:35 PM)
Low46 °F (Aug 19, 6:15 AM)13% (Aug 30, 2:35 PM)29.79 "Hg (Aug 21, 4:55 PM)
Average69 °F47%30.11 "Hg
* Reported Aug 17 11:35 PM — Sep 1 11:55 PM, Fort Collins, Weather by CustomWeather, © 2015

Note: Actual official high and low records may vary slightly from our data, if they occured in-between our weather recording intervals... More about our weather records

Advertising

Fort Collins weather history for previous 24 hours

 ConditionsComfort  
Time TempWeatherWind HumidityBarometerVisibility
11:55 PM
Tue, Sep 1
63 °FClear.3 mph49%30.08 "Hg10 mi
11:35 PM64 °FClear.3 mph46%30.08 "Hg10 mi
11:15 PM66 °FClear.5 mph43%30.08 "Hg10 mi
10:55 PM66 °FClear.5 mph46%30.08 "Hg10 mi
10:35 PM66 °FClear.N/A46%30.08 "Hg10 mi
10:15 PM66 °FClear.6 mph43%30.08 "Hg10 mi
9:55 PM68 °FClear.9 mph43%30.08 "Hg10 mi
9:15 PM70 °FClear.9 mph40%30.06 "Hg10 mi
8:55 PM68 °FClear.10 mph40%30.05 "Hg10 mi
8:35 PM72 °FClear.8 mph38%30.05 "Hg10 mi
8:15 PM75 °FSunny.5 mph34%30.04 "Hg10 mi
7:55 PM75 °FSunny.5 mph34%30.04 "Hg10 mi
7:35 PM77 °FSunny.7 mph30%30.03 "Hg10 mi
7:15 PM79 °FSunny.3 mph30%30.02 "Hg10 mi
6:55 PM81 °FSunny.6 mph26%30.02 "Hg10 mi
6:35 PM82 °FSunny.7 mph25%30.02 "Hg10 mi
6:15 PM82 °FSunny.9 mph25%30.01 "Hg10 mi
5:55 PM82 °FSunny.13 mph25%30.02 "Hg10 mi
5:35 PM84 °FSunny.8 mph23%30.02 "Hg10 mi
5:15 PM84 °FSunny.13 mph22%30.01 "Hg10 mi
4:55 PM82 °FSunny.10 mph21%30.01 "Hg10 mi
3:35 PM90 °FSunny.7 mph21%30.00 "Hg9 mi
3:15 PM91 °FSunny.13 mph20%30.00 "Hg10 mi
2:55 PM90 °FSunny.7 mph20%30.00 "Hg10 mi
2:35 PM90 °FSunny.7 mph21%30.01 "Hg3 mi
2:15 PM90 °FSunny.7 mph21%30.02 "Hg5 mi
1:55 PM88 °FSunny.7 mph22%30.02 "Hg2 mi
1:35 PM88 °FSunny.9 mph24%30.02 "Hg8 mi
1:15 PM86 °FSunny.12 mph24%30.04 "Hg3 mi
12:55 PM88 °FSunny.8 mph25%30.04 "Hg5 mi
12:35 PM86 °FSunny.No wind27%30.05 "Hg3 mi
12:15 PM84 °FSunny.3 mph29%30.06 "Hg5 mi
11:55 AM84 °FSunny.6 mph29%30.08 "Hg9 mi
11:35 AM82 °FSunny.6 mph32%30.08 "Hg4 mi
11:15 AM81 °FSunny.6 mph32%30.10 "Hg10 mi
10:55 AM79 °FSunny.6 mph39%30.11 "Hg10 mi
10:35 AM75 °FSunny.No wind44%30.11 "Hg10 mi
10:15 AM73 °FSunny.6 mph44%30.11 "Hg10 mi
9:55 AM70 °FSunny.3 mph50%30.11 "Hg10 mi
9:35 AM70 °FSunny.5 mph53%30.11 "Hg10 mi
9:15 AM68 °FSunny.5 mph56%30.11 "Hg10 mi
8:55 AM66 °FSunny.No wind52%30.11 "Hg10 mi
8:35 AM64 °FSunny.No wind56%30.11 "Hg10 mi
8:15 AM61 °FSunny.No wind63%30.11 "Hg10 mi
7:55 AM59 °FSunny.No wind68%30.11 "Hg10 mi
7:35 AM57 °FSunny.No wind72%30.11 "Hg10 mi
7:15 AM55 °FClear.No wind77%30.10 "Hg10 mi
6:55 AM54 °FClear.No wind77%30.10 "Hg10 mi
6:35 AM54 °FClear.6 mph77%30.10 "Hg10 mi
6:15 AM54 °FClear.3 mph77%30.10 "Hg10 mi
5:55 AM54 °FClear.5 mph77%30.10 "Hg10 mi
5:35 AM55 °FClear.6 mph77%30.10 "Hg10 mi
5:15 AM55 °FClear.6 mph77%30.09 "Hg10 mi
4:55 AM55 °FClear.6 mph77%30.10 "Hg10 mi
4:35 AM55 °FClear.5 mph82%30.10 "Hg10 mi
4:15 AM55 °FClear.7 mph77%30.09 "Hg10 mi
3:55 AM57 °FClear.6 mph77%30.10 "Hg10 mi
3:35 AM55 °FClear.No wind82%30.10 "Hg10 mi
3:15 AM57 °FClear.3 mph82%30.10 "Hg10 mi
2:55 AM55 °FClear.No wind82%30.09 "Hg10 mi
2:35 AM59 °FClear.No wind77%30.10 "Hg10 mi
2:15 AM59 °FClear.5 mph77%30.10 "Hg10 mi
1:55 AM59 °FClear.5 mph77%30.10 "Hg10 mi
1:35 AM61 °FClear.8 mph72%30.10 "Hg10 mi
1:15 AM61 °FClear.7 mph72%30.10 "Hg10 mi
Weather by CustomWeather, © 2015

See weather overviewHow to use our weather pages